Hourly Weather Roundup
Issued by NWS Central Illinois

Home | Current Version | Previous Version | Graphics & Text | Print | Product List | Glossary On
Versions: 1 2 3 4 5 6 7 8 9 10 11 12 13 14 15 16 17 18 19 20 21 22 23 24 25 26 27 28 29 30 31 32 33 34 35 36 37 38 39 40 41 42 43 44 45 46 47 48 49 50
000
NZUS43 KILX 220410
HWRILX

Area Weather Roundup
National Weather Service Lincoln IL
1100 PM CDT WED JUN 21 2017

NOTE:  "FAIR" indicates few or no clouds below 12,000 feet, with
       no sigificant weather and/or obstructions to visibility.


CITY           SKY/WX    TMP DP  RH WIND       PRES   REMARKS
Bloomington    CLOUDY    74  70  87 S8        29.91F
Champaign      CLOUDY    76  71  85 S9        29.92F
Danville       CLOUDY    75  70  84 S3        29.91S
Decatur        CLOUDY    80  68  66 SW12      29.92S HX  83
Effingham      PTCLDY    78  69  73 S7        29.96S HX  80
Flora          PTCLDY    77  70  79 S6        29.97R
Galesburg      CLOUDY    74  69  83 SE6       29.87S
Jacksonville   MOCLDY    80  68  66 S8        29.90S HX  82
Lacon          LGT RAIN  76  70  80 S5        29.84S
Lawrenceville  CLOUDY    76  70  82 S5        29.96S
Litchfield     CLOUDY    75  69  79 S8        29.94R
$$


CITY           SKY/WX    TMP DP  RH WIND       PRES   REMARKS
Lincoln        CLOUDY    82  71  71 S3        29.89F HX  86
Macomb         CLOUDY    74  70  86 S6        29.88F
Mattoon        MOCLDY    79  69  71 S7        29.92S HX  81
Mt Carmel AP   CLOUDY    77  68  73 SW7       29.97R
Olney-Noble AP PTCLDY    76  73  92 S3        29.97S
Paris AP       MOCLDY    74  70  86 SW6       29.95S
Peoria         CLOUDY    76  73  91 E3        29.87F
Pontiac        CLOUDY    76  71  85 SE8       29.88F
Rantoul        PTCLDY    77  73  87 S6        29.92F
Robinson       MOCLDY    75  70  83 S8        29.96S
Springfield    CLOUDY    81  70  69 S8        29.90F HX  84
Taylorville    MOCLDY    77  68  73 S7        29.93S
$$

...REGIONAL REPORTS...


CITY           SKY/WX    TMP DP  RH WIND       PRES   REMARKS
Chicago O`Hare CLOUDY    71  57  61 SE8       29.88F
Kankakee       PTCLDY    72  68  88 SE3       29.91S
Moline         CLOUDY    80  68  66 S8        29.82F HX  83
Mount Sterling CLOUDY    75  69  81 S8        29.88S
Mount Vernon   MOCLDY    75  69  81 S3        29.96S
Pittsfield     CLOUDY    80  69  70 S8        29.90F HX  82
Quincy         MOCLDY    80  67  64 S9        29.87S HX  82
Rockford       MOCLDY    72  62  71 SE8       29.86F
$$


CITY           SKY/WX    TMP DP  RH WIND       PRES   REMARKS
Burlington     CLEAR     77  69  76 S8        29.84F
Cedar Rapids   CLEAR     72  71  97 S8        29.79F
Des Moines     CLEAR     78  64  61 S10       29.76S HX  80
Kirksville     CLEAR     72  66  81 S6        29.86R
Ottumwa        CLEAR     77  66  68 S6        29.80F
St Louis       MOCLDY    83  68  60 S10       29.93R HX  86
$$


CITY           SKY/WX    TMP DP  RH WIND       PRES   REMARKS
Terre Haute    PTCLDY    78  68  71 S7        29.95R HX  80
Evansville     PTCLDY    77  67  71 S5        29.99R
Indianapolis   CLOUDY    76  70  82 SW9       29.96R
Lafayette      CLOUDY    72  69  90 CALM      29.93R
Madison        CLOUDY    69  59  70 E6        29.85F
Milwaukee      MOCLDY    66  54  65 S5        29.89F
$$





USA.gov is the U.S. government's official web portal to all federal, state and local government web resources and services.